Location: Pandora
(40.9481°N, 83.9611°W)
Time: 07:20:48
(UTC-04:00)

Envisat - Visible Passes

Search period start: 17 September 2021 00:00
Search period end: 27 September 2021 00:00
Orbit: 764 x 766 km, 98.2° (Epoch: 17 September)

Date Brightness Start Highest point End Pass type
(mag) Time Alt. Az. Time Alt. Az. Time Alt. Az.
17 Sep 3.5 06:38:25 10° NNE 06:43:28 67° E 06:48:30 10° S visible
18 Sep 5.0 06:02:03 10° NE 06:06:30 30° E 06:10:53 10° SSE visible
19 Sep 6.0 05:26:55 10° ENE 05:29:17 13° E 05:31:39 10° ESE visible
20 Sep 3.9 06:26:58 10° NNE 06:31:57 52° E 06:36:53 10° S visible
21 Sep 5.4 05:50:51 10° NE 05:54:54 23° E 05:58:54 10° SSE visible
22 Sep 3.1 06:52:12 10° NNE 06:57:18 89° WNW 07:02:23 10° SSW visible
23 Sep 4.4 06:15:36 10° NNE 06:20:23 41° E 06:25:09 10° SSE visible
24 Sep 5.8 05:39:48 10° NE 05:43:17 18° E 05:46:45 10° SE visible
25 Sep 3.3 06:40:42 10° NNE 06:45:48 73° ESE 06:50:52 10° S visible
26 Sep 4.9 06:04:17 10° NNE 06:08:49 32° E 06:13:20 10° SSE visible
